| time (UTC) | temp F | wind direction | speed MPH | gust MPH | rain 1hr in | rain 24hr in | rain mn in | humidity % | barometer mb |
| 20260510081512 | 51 | 16 | 0.0 | 4.0 | 0.00 | 0.30 | 0.00 | 95 | 1010.2 |
| 20260510080039 | 51 | 42 | 1.0 | 4.0 | 0.00 | 0.31 | 0.00 | 96 | 1010.1 |
| 20260510074526 | 51 | 311 | 0.0 | 0.0 | 0.00 | 0.32 | 0.00 | 96 | 1009.8 |
| 20260510073038 | 50 | 126 | 0.0 | 5.0 | 0.00 | 0.33 | 0.00 | 96 | 1009.6 |
| 20260510071509 | 50 | 11 | 0.0 | 0.0 | 0.00 | 0.37 | 0.00 | 95 | 1009.4 |
| 20260510070035 | 51 | 136 | 0.0 | 0.0 | 0.00 | 0.40 | 0.00 | 95 | 1009.2 |
| 20260510064520 | 51 | 136 | 0.0 | 0.0 | 0.00 | 0.44 | 0.00 | 95 | 1009.0 |
| 20260510063021 | 51 | 136 | 0.0 | 0.0 | 0.00 | 0.49 | 0.00 | 95 | 1008.8 |
| 20260510061526 | 51 | 136 | 0.0 | 0.0 | 0.00 | 0.56 | 0.00 | 95 | 1008.7 |
| 20260510060021 | 51 | 136 | 0.0 | 0.0 | 0.00 | 0.58 | 0.00 | 95 | 1008.7 |
| 20260510054518 | 51 | 75 | 0.0 | 0.0 | 0.00 | 0.60 | 0.00 | 95 | 1008.5 |
| 20260510053020 | 51 | 8 | 0.0 | 0.0 | 0.00 | 0.61 | 0.00 | 95 | 1008.5 |
| 20260510051523 | 51 | 3 | 0.0 | 0.0 | 0.00 | 0.62 | 0.00 | 95 | 1008.7 |
| 20260510050027 | 51 | 3 | 0.0 | 0.0 | 0.00 | 0.63 | 0.00 | 94 | 1008.3 |
| 20260510044525 | 52 | 3 | 0.0 | 0.0 | 0.00 | 0.64 | 0.00 | 94 | 1008.2 |
| 20260510043016 | 53 | 24 | 0.0 | 0.0 | 0.02 | 0.65 | 0.00 | 94 | 1008.3 |
| 20260510041528 | 53 | 141 | 0.0 | 2.0 | 0.03 | 0.65 | 0.00 | 94 | 1008.3 |
| 20260510040022 | 54 | 15 | 0.0 | 0.0 | 0.03 | 0.67 | 0.00 | 94 | 1008.3 |
| 20260510034527 | 54 | 137 | 0.0 | 0.0 | 0.04 | 0.68 | 0.67 | 94 | 1008.2 |
| 20260510033031 | 54 | 283 | 0.0 | 0.0 | 0.02 | 0.66 | 0.65 | 94 | 1008.5 |
| 20260510031523 | 54 | 143 | 0.0 | 0.0 | 0.01 | 0.66 | 0.64 | 93 | 1008.0 |
| 20260510030021 | 54 | 260 | 0.0 | 0.0 | 0.01 | 0.66 | 0.64 | 93 | 1008.2 |
| 20260510024526 | 54 | 281 | 0.0 | 0.0 | 0.00 | 0.66 | 0.63 | 93 | 1008.4 |
| 20260510023026 | 54 | 281 | 0.0 | 0.0 | 0.00 | 0.67 | 0.63 | 93 | 1007.5 |
| 20260510021606 | 54 | 281 | 0.0 | 0.0 | 0.00 | 0.68 | 0.63 | 92 | 1007.5 |
| 20260510020028 | 54 | 158 | 0.0 | 0.0 | 0.00 | 0.68 | 0.63 | 92 | 1007.6 |
| 20260510014540 | 54 | 158 | 0.0 | 0.0 | 0.00 | 0.68 | 0.63 | 91 | 1007.4 |
| 20260510013028 | 55 | 158 | 0.0 | 0.0 | 0.01 | 0.69 | 0.63 | 91 | 1007.3 |
| 20260510011525 | 55 | 158 | 0.0 | 0.0 | 0.05 | 0.69 | 0.63 | 91 | 1006.8 |
| 20260510010022 | 55 | 101 | 0.0 | 1.0 | 0.15 | 0.70 | 0.63 | 90 | 1006.8 |
| 20260510004503 | 55 | 150 | 0.0 | 2.0 | 0.23 | 0.70 | 0.63 | 89 | 1007.0 |
| 20260509233003 | 66 | 203 | 1.0 | 4.0 | 0.00 | 0.51 | 0.40 | 60 | 1004.9 |
| 20260509231504 | 67 | 135 | 1.0 | 6.0 | 0.00 | 0.51 | 0.40 | 60 | 1004.8 |
| 20260509230035 | 69 | 266 | 2.0 | 7.0 | 0.00 | 0.51 | 0.40 | 57 | 1004.5 |
| 20260509224517 | 71 | 249 | 2.0 | 7.0 | 0.00 | 0.51 | 0.40 | 56 | 1004.4 |
| 20260509223026 | 71 | 137 | 2.0 | 7.0 | 0.00 | 0.51 | 0.40 | 55 | 1004.4 |
| 20260509214526 | 69 | 236 | 2.0 | 10.0 | 0.00 | 0.51 | 0.40 | 56 | 1004.4 |
| 20260509213020 | 69 | 155 | 2.0 | 10.0 | 0.00 | 0.51 | 0.40 | 57 | 1004.5 |
| 20260509211527 | 69 | 250 | 2.0 | 7.0 | 0.00 | 0.51 | 0.40 | 58 | 1004.7 |
| 20260509210024 | 69 | 257 | 2.0 | 6.0 | 0.00 | 0.51 | 0.40 | 58 | 1005.1 |
| 20260509204509 | 69 | 173 | 2.0 | 9.0 | 0.00 | 0.51 | 0.40 | 58 | 1005.1 |
| 20260509203023 | 69 | 264 | 2.0 | 8.0 | 0.00 | 0.51 | 0.40 | 57 | 1005.3 |
| 20260509201522 | 70 | 284 | 2.0 | 10.0 | 0.00 | 0.51 | 0.40 | 57 | 1005.5 |
| 20260509200026 | 71 | 273 | 3.0 | 6.0 | 0.00 | 0.52 | 0.40 | 55 | 1005.8 |
| 20260509190025 | 70 | 143 | 1.0 | 6.0 | 0.00 | 0.56 | 0.40 | 59 | 1006.4 |
| 20260509184527 | 71 | 305 | 2.0 | 9.0 | 0.00 | 0.56 | 0.40 | 61 | 1006.5 |
| 20260509183026 | 70 | 288 | 2.0 | 7.0 | 0.00 | 0.57 | 0.40 | 64 | 1006.6 |
| 20260509181525 | 69 | 217 | 1.0 | 5.0 | 0.00 | 0.58 | 0.40 | 65 | 1006.6 |
| 20260509180020 | 69 | 284 | 2.0 | 12.0 | 0.00 | 0.58 | 0.40 | 65 | 1006.8 |
| 20260509174524 | 67 | 272 | 1.0 | 9.0 | 0.00 | 0.58 | 0.40 | 71 | 1007.0 |
| 20260509173031 | 66 | 238 | 1.0 | 9.0 | 0.00 | 0.58 | 0.40 | 69 | 1006.8 |
| 20260509171531 | 66 | 276 | 1.0 | 5.0 | 0.00 | 0.58 | 0.40 | 70 | 1007.0 |
| 20260509170026 | 66 | 150 | 1.0 | 6.0 | 0.00 | 0.58 | 0.40 | 76 | 1007.2 |
| 20260509164527 | 65 | 237 | 1.0 | 5.0 | 0.00 | 0.60 | 0.40 | 74 | 1007.3 |
| 20260509161529 | 63 | 303 | 1.0 | 5.0 | 0.00 | 0.60 | 0.40 | 79 | 1007.2 |
| 20260509160034 | 61 | 225 | 1.0 | 3.0 | 0.00 | 0.60 | 0.40 | 84 | 1007.3 |
| 20260509154528 | 60 | 309 | 1.0 | 4.0 | 0.00 | 0.60 | 0.40 | 85 | 1007.3 |
| 20260509153008 | 59 | 273 | 1.0 | 3.0 | 0.00 | 0.60 | 0.40 | 86 | 1007.3 |
| 20260509151507 | 59 | 195 | 1.0 | 4.0 | 0.00 | 0.60 | 0.40 | 87 | 1007.2 |
| 20260509150008 | 58 | 215 | 1.0 | 6.0 | 0.00 | 0.60 | 0.40 | 90 | 1007.0 |
| 20260509144513 | 57 | 217 | 1.0 | 4.0 | 0.00 | 0.60 | 0.40 | 93 | 1007.0 |
| 20260509143031 | 55 | 227 | 0.0 | 7.0 | 0.00 | 0.60 | 0.40 | 93 | 1007.1 |
| 20260509141504 | 56 | 302 | 0.0 | 3.0 | 0.00 | 0.60 | 0.40 | 93 | 1007.1 |
| 20260509140008 | 55 | 97 | 0.0 | 6.0 | 0.00 | 0.60 | 0.40 | 95 | 1006.9 |
| 20260509134530 | 54 | 143 | 1.0 | 3.0 | 0.00 | 0.60 | 0.40 | 95 | 1007.0 |
| 20260509133015 | 54 | 217 | 1.0 | 3.0 | 0.00 | 0.60 | 0.40 | 95 | 1007.2 |
| 20260509131522 | 53 | 143 | 0.0 | 2.0 | 0.00 | 0.60 | 0.40 | 95 | 1007.3 |
| 20260509130024 | 53 | 264 | 0.0 | 3.0 | 0.00 | 0.60 | 0.40 | 95 | 1007.4 |
| 20260509123027 | 52 | 239 | 0.0 | 1.0 | 0.00 | 0.60 | 0.40 | 95 | 1007.6 |
| 20260509121518 | 52 | 209 | 0.0 | 1.0 | 0.00 | 0.60 | 0.40 | 95 | 1007.5 |
| 20260509120023 | 52 | 211 | 0.0 | 1.0 | 0.00 | 0.60 | 0.40 | 95 | 1007.5 |
| 20260509114526 | 51 | 196 | 0.0 | 0.0 | 0.00 | 0.60 | 0.40 | 95 | 1007.5 |
| 20260509113014 | 51 | 187 | 0.0 | 1.0 | 0.00 | 0.60 | 0.40 | 95 | 1007.4 |
| 20260509111514 | 51 | 153 | 0.0 | 1.0 | 0.00 | 0.60 | 0.40 | 95 | 1007.4 |
| 20260509110020 | 51 | 131 | 0.0 | 1.0 | 0.00 | 0.60 | 0.40 | 95 | 1007.3 |
| 20260509104522 | 51 | 153 | 0.0 | 4.0 | 0.00 | 0.60 | 0.40 | 95 | 1007.2 |
| 20260509103028 | 51 | 268 | 0.0 | 1.0 | 0.00 | 0.60 | 0.40 | 95 | 1007.2 |
| 20260509101514 | 51 | 149 | 0.0 | 1.0 | 0.00 | 0.60 | 0.40 | 95 | 1007.2 |
| 20260509100016 | 51 | 131 | 0.0 | 1.0 | 0.00 | 0.60 | 0.40 | 95 | 1007.2 |
| 20260509094520 | 51 | 110 | 0.0 | 1.0 | 0.01 | 0.60 | 0.40 | 95 | 1007.3 |
| 20260509093024 | 51 | 267 | 0.0 | 3.0 | 0.01 | 0.60 | 0.40 | 95 | 1007.4 |
| 20260509091530 | 50 | 214 | 0.0 | 1.0 | 0.03 | 0.61 | 0.40 | 95 | 1007.4 |
| 20260509090014 | 50 | 146 | 0.0 | 1.0 | 0.04 | 0.61 | 0.40 | 95 | 1007.5 |
| 20260509084518 | 50 | 230 | 0.0 | 3.0 | 0.04 | 0.60 | 0.39 | 95 | 1007.8 |
| 20260509083024 | 50 | 148 | 0.0 | 2.0 | 0.05 | 0.60 | 0.39 | 95 | 1007.8 |